"Pseudo-MPEC" for CC845L2

Created 2024 Nov 1 10:31:15 UT using Find_Orb

Click here for an explanation of pseudo-MPECs

 
 Astrometry: 
     CC845L2*1C2024 10 31.33181803 27 47.891+05 54 09.58   ~AV92 20.31GVNEOCPG96
     CC845L2 1C2024 10 31.33698403 27 47.041+05 54 49.43   ~AV92 20.13GVNEOCPG96
     CC845L2 1C2024 10 31.34214003 27 46.192+05 55 28.92   ~AV92 20.25GVNEOCPG96
     CC845L2 1C2024 10 31.34731403 27 45.356+05 56 08.56   ~AV92 20.15GVNEOCPG96
     CC845L2 mC2024 10 31.46094303 27 27.148+06 10 51.92   ~AVBH 20.27GVNEOCPI52
     CC845L2 mC2024 10 31.46154103 27 27.076+06 10 56.14   ~AVBH 20.13GVNEOCPI52
     CC845L2 mC2024 10 31.46214003 27 26.960+06 11 00.92   ~AVBH 20.38GVNEOCPI52
     CC845L2 KC2024 10 31.87466703 26 56.42 +07 08 37.8    ~AVLV 20.5 GVNEOCPL01
     CC845L2 KB2024 10 31.87484903 26 58.05 +07 08 38.3    ~AVM2 19.8 GVNEOCPI93
     CC845L2 KC2024 10 31.87689103 26 56.09 +07 08 58.7    ~AVLV 20.5 GVNEOCPL01
     CC845L2 KC2024 10 31.87911403 26 55.71 +07 09 18.8    ~AVLV 20.0 GVNEOCPL01
     CC845L2 1C2024 10 31.88246 03 26 54.79 +07 09 34.1    ~AVLl 20.2 VXNEOCP033
     CC845L2 1C2024 10 31.88312 03 26 54.69 +07 09 40.0    ~AVLl 20.1 VXNEOCP033
     CC845L2 1C2024 10 31.88378 03 26 54.59 +07 09 46.1    ~AVLl 20.3 VXNEOCP033
     CC845L2 1C2024 10 31.88443 03 26 54.48 +07 09 52.1    ~AVLl 20.4 VXNEOCP033
     CC845L2 KB2024 10 31.88454503 26 55.603+07 10 29.53   ~B17H 18.5 GXNEOCPL34
     CC845L2 KB2024 10 31.88661503 26 56.24 +07 10 25.9    ~AVM2 19.5 GVNEOCPI93
     CC845L2 KB2024 10 31.89946603 26 54.29 +07 12 23.6    ~AVM2 19.4 GVNEOCPI93
     CC845L2 KC2024 10 31.91257103 26 50.76 +07 14 27.6    ~AVMl 19.1 GVNEOCP104
     CC845L2 KC2024 10 31.92612803 26 48.40 +07 16 32.0    ~AVMl       VNEOCP104
     CC845L2 0B2024 10 31.98903603 26 36.138+07 30 04.69   ~B17H 20.1 VZNEOCPM49
     CC845L2 0B2024 10 31.99337703 26 35.264+07 30 45.24   ~B17H 20.0 VZNEOCPM49
     CC845L2 KB2024 10 31.99629103 26 35.191+07 27 42.59   ~B17H 19.4 GXNEOCPL34
     CC845L2 0B2024 10 31.99772003 26 34.368+07 31 26.33   ~B17H 19.8 VZNEOCPM49
     CC845L2 KC2024 11 01.01250503 26 34.90 +07 30 00.0    ~B112x18.9 GXNEOCP958
     CC845L2 KC2024 11 01.01896103 26 33.76 +07 31 00.8    ~B112 19.2 GXNEOCP958
     CC845L2 KC2024 11 01.02536803 26 32.56 +07 32 01.1    ~B112 19.0 GXNEOCP958
     CC845L2 KC2024 11 01.07931903 26 20.28 +07 40 25.3    ~B132 19.7 GXNEOCP595
     CC845L2 KC2024 11 01.08924203 26 18.53 +07 42 00.2    ~B132 19.7 GXNEOCP595
     CC845L2 IC2024 11 01.09937903 26 16.74 +07 43 37.4    ~B132 19.2 GXNEOCP595
     CC845L2 KC2024 11 01.20797203 26 13.52 +08 01 51.6    ~B15l 19.9 GVNEOCPH21
     CC845L2 KC2024 11 01.21076903 26 12.96 +08 02 19.8    ~B15l 20.0 GVNEOCPH21
     CC845L2 KC2024 11 01.21356703 26 12.41 +08 02 47.9    ~B15l 20.0 GVNEOCPH21
     CC845L2 KC2024 11 01.21627103 26 11.88 +08 03 15.4    ~B15l 20.0 GVNEOCPH21
     CC845L2 KC2024 11 01.38526803 25 41.329+08 32 50.93   ~B19l 20.10GVNEOCPI52
     CC845L2 KC2024 11 01.38797503 25 40.753+08 33 19.40   ~B19l 20.01GVNEOCPI52
     CC845L2 KC2024 11 01.38859103 25 40.620+08 33 25.88   ~B19l 19.82GVNEOCPI52
     CC845L2 KC2024 11 01.38920603 25 40.472+08 33 32.80   ~B19l 20.09GVNEOCPI52

Station data:
(033) Karl Schwarzschild Observatory, Tautenburg  (N50.980139 E11.711240)
   Germany.  Observer B. Stecklum. 1.34-m f/3 Schmidt + CCD.
(104) San Marcello Pistoiese  (N44.064178 E10.803750)  Italy.  Observers P.
   Bacci, M. Maestripieri. Measurers P. Bacci, L. Tesi, G. Fagioli. 0.60-m
   reflector + CCD.
(595) Farra d'Isonzo  (N45.915731 E13.525780)  Italy.  Observers S. Aschi, E.
   Pettarin, G. Panterotto. Measurers S. Aschi, E. Pettarin. 0.40-m f/5.15
   reflector + CCD.
(958) Observatoire de Dax  (N43.693381 W1.030530)  France.  Observer P.
   Dupouy. 0.32-m Schmidt-Cassegrain.
(G96) Mt. Lemmon Survey  (N32.442729 W110.788720)  US/Arizona.  Observer E.
   J. Christensen. 1.5-m reflector + 10K CCD.
(H21) Astronomical Research Observatory, Westfield  (N39.483054 W87.968270)
   US/Illinois.  Observer R. Holmes. Measurers S. Foglia, L. Buzzi, T.
   Linder, R. Holmes. 0.76-m f/3.0 astrograph + CCD0.81-m f/4.0 astrograph +
   CCD0.61-m f/4.5 astrograph + CCD0.40-m f/5.32 astrograph + CCD.
(I52) Steward Observatory, Mt. Lemmon Station  (N32.442570 W110.788920)
   US/Arizona.  Observers T. A. Pruyne, B. M. Africano, E. J. Christensen, G.
   A. Farneth, D. C. Fuls, A. R. Gibbs, A. D. Grauer, H. Gröller, J. A.
   Johnson, R. A. Kowalski, S. M. Larson, G. J. Leonard, D. Rankin, R. L.
   Seaman, F. C. Shelly, K. W. Wierzchoś. 1.0-m prime focus + CCD.
(I93) St Pardon de Conques  (N44.558670 W0.202960)  France.  Observers F.
   Losse, W. D'Anna. Measurer F. Losse. 0.40-m f/3.7 reflector + CCD.
(L01) Višnjan Observatory, Tičan  (N45.290897 E13.749300)  Croatia.
   Observers K. Korlević, D. Pujagic, V. Dobos. Measurers D. Pujagic, K.
   Korlević. 1.0-m f/2.9 reflector + CCD.
(L34) Galhassin Robotic Telescope, Isnello  (N37.939358 E14.020610)  Italy.
   Observer A. Nastasi. 0.40-m reflector + CCD.
(M49) IAS Remote Observatory, Hakos  (S23.236549 E16.361720)  Namibia.
   Observers D. Husar, M. Junius. Measurer D. Husar. 0.25-m f/4.6 reflector +
   CCD.

Orbital elements:  CC845L2
   Perihelion 2025 Jan 8.40803 +/- 0.0252 TT =  9:47:34 (JD 2460683.90803)
Epoch 2024 Nov  1.0 TT = JDT 2460615.5   Earth MOID: 0.0120   Ve: 0.0714
M 303.82901026 +/- 0.047            (J2000 ecliptic)             AutoNEOCP
n   0.82111687 +/- 0.000398         Peri.   96.01985 +/- 0.008
a   1.12944754 +/- 0.000365         Node    41.50530 +/- 0.0007
e   0.3656144 +/- 0.000417          Incl.   11.08355 +/- 0.011
P   1.200/438.419d         H 26.01  G  0.15   U  7.5
q 0.71650517 +/- 0.000251    Q 1.54238990 +/- 0.000964
37 of 38 observations 2024 Oct. 31-Nov. 1 (25.4 hr); mean residual 0".35
Residuals in arcseconds: 
241031 G96  .09+  .08-    241031 033  .12+  .03-    241101 958  .18+  1.3+    
241031 G96  .02-  .20+    241031 033  .01-  .05+    241101 595  .16-  .15-    
241031 G96  .12-  .16+    241031 L34  .69+  .16+    241101 595  .05+  .25-    
241031 G96  .04+  .08+    241031 I93  .41-  .16-    241101 595  .01-  .35-    
241031 I52  .01-  .21+    241031 I93  .18+  .13-    241101 H21  .32+  .16+    
241031 I52  .26+  .28-    241031 104  .23+  .04-    241101 H21  .08+  .08+    
241031 I52  .12-  .21-    241031 104  .38-  .42-    241101 H21  .01+  .12-    
241031 L01  .48-  .57-    241031 M49  .29+  .00     241101 H21  .01-  .01+    
241031 I93  .19+  .38-    241031 M49  .30+  .21-    241101 I52  .08-  .03+    
241031 L01  .11-  .11+    241031 L34  .92-  .68-    241101 I52  .03+  .23-    
241031 L01  .47-  .03-    241031 M49  .01-  .07+    241101 I52  .03+  .29-    
241031 033  .04+  .01-    241101 958( .45-  1.8+)   241101 I52  .20-  .10+    
241031 033  .08+  .12-    241101 958  .34+  1.6+    

Ephemerides (geocentric):
Date (UTC) HH   RA             Dec           delta  r     elong  mag " sig PA
---- --------  ------------   ------------  ------ ------ -----  --- --------
2024 11 01 11  03 25 34.747   +08 47 29.99  .03938 1.0305 164.6 19.9 .040 164
2024 11 01 12  03 25 28.738   +08 55 09.04  .03911 1.0302 164.7 19.9 .030 162
2024 11 01 13  03 25 22.633   +09 02 54.71  .03883 1.0299 164.8 19.8 .018 157
2024 11 01 14  03 25 16.430   +09 10 47.15  .03855 1.0297 164.9 19.8 6.6m 133
2024 11 01 15  03 25 10.127   +09 18 46.50  .03827 1.0294 165.0 19.8 9.2m  15
2024 11 01 16  03 25 03.721   +09 26 52.89  .03799 1.0292 165.1 19.8 .023 179
2024 11 01 17  03 24 57.211   +09 35 06.49  .03771 1.0289 165.2 19.8 .039 175
2024 11 01 18  03 24 50.594   +09 43 27.44  .03743 1.0286 165.3 19.7 .056 173
2024 11 01 19  03 24 43.868   +09 51 55.90  .03716 1.0284 165.4 19.7 .074 172
2024 11 01 20  03 24 37.029   +10 00 32.03  .03688 1.0281 165.6 19.7 .094 172
2024 11 01 21  03 24 30.076   +10 09 15.99  .03660 1.0278 165.7 19.7 .115 171
2024 11 01 22  03 24 23.005   +10 18 07.96  .03633 1.0276 165.8 19.7 .137 171
2024 11 01 23  03 24 15.814   +10 27 08.11  .03605 1.0273 165.9 19.6 .160 171
2024 11 02 00  03 24 08.501   +10 36 16.61  .03577 1.0271 166.0 19.6 .186 171
2024 11 02 01  03 24 01.061   +10 45 33.66  .03550 1.0268 166.1 19.6 .212 170
2024 11 02 02  03 23 53.492   +10 54 59.44  .03522 1.0265 166.2 19.6 .241 170
2024 11 02 03  03 23 45.791   +11 04 34.16  .03495 1.0263 166.3 19.5 .271 170
2024 11 02 04  03 23 37.955   +11 14 18.00  .03467 1.0260 166.4 19.5 .303 170
2024 11 02 05  03 23 29.979   +11 24 11.18  .03440 1.0257 166.6 19.5 .336 170
2024 11 02 06  03 23 21.861   +11 34 13.90  .03412 1.0255 166.7 19.5 .372 170
2024 11 02 07  03 23 13.597   +11 44 26.39  .03385 1.0252 166.8 19.5 .409 170
2024 11 02 08  03 23 05.184   +11 54 48.88  .03358 1.0250 166.9 19.4 .449 170
2024 11 02 09  03 22 56.616   +12 05 21.59  .03330 1.0247 167.0 19.4 .491 170
2024 11 02 10  03 22 47.891   +12 16 04.76  .03303 1.0244 167.1 19.4 .535 170
2024 11 02 11  03 22 39.003   +12 26 58.63  .03276 1.0242 167.2 19.4 .581 170
2024 11 02 12  03 22 29.950   +12 38 03.47  .03249 1.0239 167.3 19.4 .630 170
2024 11 02 13  03 22 20.726   +12 49 19.52  .03221 1.0236 167.5 19.3 .681 169
2024 11 02 14  03 22 11.326   +13 00 47.06  .03194 1.0234 167.6 19.3 .735 169
2024 11 02 15  03 22 01.746   +13 12 26.37  .03167 1.0231 167.7 19.3 .792 169
2024 11 02 16  03 21 51.981   +13 24 17.72  .03140 1.0228 167.8 19.3 .852 169
2024 11 02 17  03 21 42.026   +13 36 21.41  .03113 1.0226 167.9 19.2 .914 169
2024 11 02 18  03 21 31.874   +13 48 37.74  .03086 1.0223 168.0 19.2 .980 169
2024 11 02 19  03 21 21.522   +14 01 07.03  .03059 1.0221 168.1 19.2 1.05 169
2024 11 02 20  03 21 10.962   +14 13 49.58  .03032 1.0218 168.2 19.2 1.12 169
2024 11 02 21  03 21 00.188   +14 26 45.74  .03005 1.0215 168.3 19.1 1.20 169
2024 11 02 22  03 20 49.196   +14 39 55.84  .02979 1.0213 168.4 19.1 1.28 169
2024 11 02 23  03 20 37.977   +14 53 20.24  .02952 1.0210 168.5 19.1 1.36 169
2024 11 03 00  03 20 26.525   +15 06 59.29  .02925 1.0207 168.6 19.1 1.45 169
2024 11 03 01  03 20 14.833   +15 20 53.36  .02899 1.0205 168.7 19.0 1.54 169
2024 11 03 02  03 20 02.894   +15 35 02.85  .02872 1.0202 168.8 19.0 1.63 169
2024 11 03 03  03 19 50.700   +15 49 28.15  .02846 1.0200 168.9 19.0 1.73 169
2024 11 03 04  03 19 38.243   +16 04 09.67  .02819 1.0197 168.9 19.0 1.84 169
2024 11 03 05  03 19 25.515   +16 19 07.83  .02793 1.0194 169.0 19.0 1.95 169
2024 11 03 06  03 19 12.506   +16 34 23.06  .02766 1.0192 169.1 18.9 2.06 169
2024 11 03 07  03 18 59.208   +16 49 55.81  .02740 1.0189 169.1 18.9 2.18 169
2024 11 03 08  03 18 45.612   +17 05 46.55  .02714 1.0186 169.2 18.9 2.31 169
2024 11 03 09  03 18 31.707   +17 21 55.76  .02688 1.0184 169.2 18.9 2.44 169
2024 11 03 10  03 18 17.483   +17 38 23.92  .02662 1.0181 169.3 18.8 2.58 169